Observations for Trim Market St
| Time | AQI | Temp °C | Hum % | Pres Pa | CO μg/m³ | H₂S μg/m³ | NO μg/m³ | NO₂ μg/m³ | O₃ μg/m³ | SO₂ μg/m³ | PM1 μg/m³ | PM2.5 μg/m³ | PM10 μg/m³ |
|---|---|---|---|---|---|---|---|---|---|---|---|---|---|
| Thursday 13 August 2026 | |||||||||||||
| 02:48 | 3 | 21.3 | 69 | 54,748 | 0.04 | 0.85 | 1.06 | 22.41 | 51.16 | 0 | 3.56 | 5.05 | 8.16 |
| 02:47 | 3 | 21.3 | 69 | 54,843 | 0.03 | 0.75 | 1.07 | 22.15 | 48.67 | 0 | 2.85 | 5.05 | 7.53 |
| 02:46 | 3 | 21.3 | 69 | 54,950 | 0.04 | 0.77 | 1.08 | 20.57 | 46.97 | 0 | 2.14 | 4.09 | 6.26 |
| 02:45 | 3 | 21.3 | 69 | 55,068 | 0.04 | 1.99 | 1.07 | 26.6 | 49.66 | 0 | 3.56 | 5.55 | 8.16 |
| 02:44 | 3 | 21.3 | 69 | 55,169 | 0.02 | 0.72 | 1.06 | 23.68 | 48.63 | 0 | 2.85 | 4.09 | 6.26 |
| 02:43 | 3 | 21.3 | 69 | 55,254 | 0.04 | 1.88 | 1.06 | 26.53 | 48.31 | 0 | 4.28 | 5.07 | 7.53 |
| 02:42 | 3 | 21.3 | 68 | 55,347 | 0.03 | 1.17 | 1.05 | 24.37 | 47.53 | 0 | 3.56 | 5.57 | 8.17 |
| 02:41 | 3 | 21.3 | 68 | 55,452 | 0.03 | 1.22 | 1.05 | 25.53 | 48.37 | 0 | 2.85 | 4.59 | 6.89 |
| 02:40 | 3 | 21.3 | 68 | 55,538 | 0.03 | 1.56 | 1.05 | 25.46 | 49.69 | 0 | 3.56 | 5.58 | 8.8 |
| 02:38 | 3 | 21.3 | 68 | 55,747 | 0.02 | 2.7 | 1.06 | 30.88 | 45.92 | 0 | 3.56 | 5.1 | 8.17 |
| 02:37 | 3 | 21.3 | 68 | 55,854 | 0.03 | 1.48 | 1.06 | 24.77 | 48.5 | 0 | 2.85 | 4.62 | 6.89 |
| 02:36 | 3 | 21.3 | 68 | 55,954 | 0.03 | 0.67 | 1.06 | 23.35 | 48.18 | 0 | 4.28 | 5.6 | 8.81 |
| 02:35 | 3 | 21.3 | 68 | 56,036 | 0.01 | 0 | 1.05 | 19.29 | 59.15 | 0 | 4.28 | 5.11 | 7.53 |
| 02:32 | 3 | 21.3 | 68 | 56,097 | 0.01 | 0.88 | 1.06 | 24.61 | 53.82 | 0 | 3.56 | 5.13 | 7.53 |
| 02:31 | 3 | 21.3 | 68 | 56,166 | 0.02 | 0.35 | 1.06 | 23.19 | 50.66 | 0 | 2.85 | 5.13 | 7.53 |
| 02:30 | 3 | 21.3 | 67 | 56,250 | 0.02 | 0.64 | 1.07 | 22.16 | 51.63 | 0 | 3.56 | 5.63 | 8.17 |
| 02:29 | 3 | 21.3 | 67 | 56,317 | 0.02 | 1.88 | 1.07 | 25.86 | 54.24 | 0 | 2.85 | 4.65 | 6.89 |
| 02:28 | 3 | 21.3 | 67 | 56,374 | 0.01 | 1.8 | 1.08 | 26.78 | 52.93 | 0 | 3.56 | 5.64 | 8.17 |
| 02:27 | 3 | 21.3 | 67 | 56,444 | 0.01 | 0.72 | 1.07 | 24.23 | 52.18 | 0 | 3.56 | 5.15 | 7.53 |
| 02:26 | 3 | 21.3 | 67 | 56,508 | 0.02 | 0.8 | 1.07 | 23.75 | 55.72 | 0 | 3.56 | 4.18 | 6.24 |